Location: Adrasan
(36.3319°N, 30.4314°E)
Time: 02:41:40
(UTC+00:00)

COSMO-SKYMED 1 - Pass Details

Date: 17 October 2025
Orbit: 580 x 582 km, 97.9° (Epoch: 13 November)

Event Time Altitude Azimuth Distance (km) Brightness Sun altitude
Rises 02:45:22 0° 141° (SE) 2,799 6.5 -17.2°
Reaches altitude 10° 02:47:43 10° 130° (SE) 1,903 5.8 -16.7°
Maximum altitude 02:51:15 28° 71° (ENE) 1,109 4.6 -16.0°
Drops below altitude 10° 02:54:48 10° 12° (NNE) 1,912 5.2 -15.3°
Sets 02:57:11 0° 1° (N) 2,815 5.9 -14.8°
